Regional Weather Roundup
Issued by NWS

Home | Current Version | Previous Version | Graphics & Text | Print | Product List | Glossary On
Versions: 1 2 3 4 5 6 7 8 9 10 11 12 13 14 15 16 17 18 19 20 21 22 23 24 25 26 27 28 29 30 31 32 33 34 35 36 37 38 39 40 41 42 43 44 45 46 47 48 49 50
376
ASUS44 KLIX 302110
RWRLA
LOUISIANA WEATHER ROUNDUP
NATIONAL WEATHER SERVICE NEW ORLEANS LA
400 PM CDT THU OCT 30 2014

NOTE: "FAIR" INDICATES FEW OR NO CLOUDS BELOW 12,000 FEET WITH NO
      SIGNIFICANT WEATHER AND/OR OBSTRUCTIONS TO VISIBILITY.
      SKY/WX - SKY CONDITION AND SIGNIFICANT WEATHER.
      TMP - AIR TEMPERATURE.    DP   - DEWPOINT TEMPERATURE.
      RH  - RELATIVE HUMIDITY.  PRES - PRESSURE.
      HX  - HEAT INDEX.         WCI  - WIND CHILL INDEX.

*  THESE STATIONS ARE NOT NWS OR FAA STATIONS AND ARE NOT UNDER
   NWS QUALITY CONTROL.

LAZ040-048-061>063-065-066-069-302200-
SOUTHEAST LOUISIANA

CITY           SKY/WX    TMP DP  RH WIND       PRES   REMARKS
N.O. AUDUBON     N/A     73 N/A N/A MISG        N/A
N.O. INTL ARPT MOSUNNY   73  40  30 NE8       30.03F
N.O. LAKEFRONT SUNNY     72  43  35 W6        30.03F
N.O. DOWNTOWN* FAIR      73  41  31 N7        30.03F
SLIDELL        SUNNY     75  39  27 N8        30.02S
BATON ROUGE    SUNNY     74  40  29 CALM      30.04F
BOOTHVILLE     SUNNY     71  51  49 NE9       30.02F
BELLE CHASSE   SUNNY     75  41  29 N6        30.02F
BOGALUSA*      FAIR      75  33  21 NE10      30.04F
NEW ROADS*     FAIR      73  42  32 CALM      30.05S
GONZALES*      FAIR      74  43  32 NW5       30.03F
HAMMOND*       SUNNY     75  32  20 N6        30.05S
HOUMA*         SUNNY     75  45  33 N8        30.02F
PORT FOURCHON* CLEAR     73  52  46 NE10      30.05S

$$

LAZ041-044-053-054-302200-
SOUTHWEST LOUISIANA

CITY           SKY/WX    TMP DP  RH WIND       PRES   REMARKS
LAKE CHARLES   SUNNY     76  45  33 NE5       30.05F
LAFAYETTE      SUNNY     76  41  28 N7        30.04F
PATTERSON      SUNNY     75  46  35 N7        30.06S
SALT POINT       N/A     76  49  38 W3        30.03S
NEW IBERIA     SUNNY     76  43  30 N8        30.05F
CHENAULT AIRPK NOT AVBL

$$

LAZ027-028-302200-
CENTRAL LOUISIANA

CITY           SKY/WX    TMP DP  RH WIND       PRES   REMARKS
FORT POLK      SUNNY     73  44  34 VRB3      30.06F
ALEXANDRIA INT SUNNY     74  40  29 NW5       30.05F
ALEXANDRIA     SUNNY     74  42  31 VRB3      30.07F

$$

LAZ001-002-302200-
NORTHWEST LOUISIANA

CITY           SKY/WX    TMP DP  RH WIND       PRES   REMARKS
SHREVEPORT     SUNNY     74  39  28 VRB3      30.06F
BARKSDALE AFB  SUNNY     74  39  28 VRB1      30.08S
DTN SHREVEPORT SUNNY     73  39  29 VRB5      30.07F

$$

LAZ014-016-302200-
NORTHEAST LOUISIANA

CITY           SKY/WX    TMP DP  RH WIND       PRES   REMARKS
MONROE         SUNNY     74  44  34 VRB3      30.07F
TALLULAH       SUNNY     73  40  30 CALM      30.06F

$$




USA.gov is the U.S. government's official web portal to all federal, state and local government web resources and services.